OBJECT A, 68627

Orbit data source: Space-Track

You're viewing an Uncataloged Satellite

Recently launched and/or uncataloged satellites may have evolving metadata. Metadata may include but not limited to: Owner, Maufacturer, Bus, Motor, and Mission.

OBJECT A, 68627 is a satellite owned by Auburn U (US) in LEO that was launched on Tue, 07 Apr 2026 UTC via an MINOTAUR IV launch vehicle from the Air Force Western Test Range (AFWTR). Unknown objects in Earth's orbit typically refer to objects detected orbiting the Earth but have not yet been identified or cataloged. These objects could be anything from previously untracked satellites, spent rocket stages, debris from satellite collisions, or even natural meteoroids temporarily captured by Earth's gravity.

Loading next visibility...
Identifier
68627, 2026-074A
Orbit
LEO
Country
Flag of USUS
Related business
Flag of USAuburn University (US)
Manufacturer
Endurosat
Mission
Operational spacecraft
Bus & Motor
CUBESAT 3U, AOCS
Mass
3.9 kg wet, 3.9 kg dry
Launch date (UTC)
2026-04-07 (1 month ago)
Launch vehicle
MINOTAUR IV
Launch site
Air Force Western Test Range (AFWTR)
Object type
Unknown
Shape & HBR
Unknown shape, 1.1 m
Radar Cross Section
RCS unknown

Expand to show TLE details & history
Last TLE update: 13 hours ago

TLE from 13 hours ago
0 OBJECT A
1 68627U 26074A   26140.37995220  .00005012  00000-0  21733-3 0  9995
2 68627  60.0186 285.0146 0022429 353.3054   6.7723 15.23709357  6542
Epoch: 2026-05-20T09:07Z
TLE epoch observation values (Epoch: 2026-05-20T09:07:07.870Z)
Latitude
-0.00001°
Longitude
-89.80854°
Altitude
480.956 km
Speed
7.634 km/s
True Right ascension
19h 00m 03s
True Declination
0° 00' 00"
Sunlit
Object was in full shadow at epoch
Visualization orbit readout
Latitude
Unknown
Longitude
Unknown
Altitude
Unknown
Speed
Unknown
Apparent Right ascension
Unknown
Apparent Declination
Unknown
Sunlit
N/A
Visualization observer readout
Local Sidereal Time
07:04:41
Azimuth
Unknown
Elevation
Unknown
Doppler factor
Unknown
Orbital elements
Apogee altitude
509.277 km
Perigee altitude
478.451 km
Semi-major axis
6,872.001 km
Eccentricity
0.00224
Inclination
60.0186°
RAAN
285.0146°
Arg. of periapsis
353.3054°
True anomaly
6.80269°
Mean anomaly
6.7723°
Eccentric anomaly
6.78749°
Mean motion
3.80994 °/min
Orbital period
94.49 mins
BSTAR
0.00021733
Loading maneuver chart data...
Computing Atmospheric mass density...
Loading historical data...
Loading historical data...
Loading historical data...
Loading historical data...
Loading historical data...
Loading historical data...
Loading historical data...

Documentation

Showing up to 5 results
|